User: anonymous   Login
Location: Koszewko
(53.2876°N, 14.9061°E)
Time: 15:27:51
(UTC+00:00)
Language:

SL-16 R/B - Orbit

View from above orbital plane
View from above orbital plane
View from above satellite
View from above satellite

Ground track
Ground track

The orbit data is extracted from the following two-line orbital elements,

1 27006U 01056F   21137.99756052 -.00000040  00000-0  46377-5 0  9991
2 27006  99.5191 271.3819 0014514 191.5223 276.0567 13.70964178972557
Epoch (UTC): 17 May 2021 23:56:29
Eccentricity: 0.0014514
inclination: 99.5191°
perigee height: 985 km
apogee height: 1007 km
right ascension of ascending node: 271.3819°
argument of perigee: 191.5223°
revolutions per day: 13.70964178
mean anomaly at epoch: 276.0567°
orbit number at epoch: 97255

The dashed part of the orbit path shows where the satellite is in the earth's shadow,  

DLR